Temperature
27 27 27 28 29 29 29 29 29 30 31 30 30 30 30 30 30 29 28 27 27 25 25 24 23 22 22 21 20 20 19 18 18 18 17 17 17 17 17 17 17 17 17 17
27 27 28 29 30 29 29 29 29 29 30 30 30 30 30 30 30 29 28 27 26 26 24 24 23 22 21 20 20 19 19 18 18 18 17 17 17 17 17 17 17 17 17 17
27 28 30 29 29 29 29 29 29 28 29 30 29 29 29 29 29 28 28 27 26 25 24 23 23 22 21 20 20 19 19 18 18 18 17 17 17 17 17 16 16 16 16 16
28 29 30 29 29 29 28 29 29 29 28 28 28 27 28 28 28 28 27 26 26 25 23 23 22 22 21 20 19 19 19 18 18 18 17 17 17 17 16 16 16 16 16 16
28 29 29 28 29 29 29 30 29 29 28 27 28 27 27 27 27 27 27 26 25 25 24 22 22 21 21 20 19 19 18 18 18 17 17 17 17 17 16 16 16 16 16 16
28 29 29 29 30 30 30 29 29 28 28 26 27 26 26 27 26 27 27 26 25 25 24 22 21 21 20 20 19 18 18 18 18 17 17 17 17 17 16 16 16 16 15 15
27 28 29 30 29 29 29 27 26 25 25 25 26 26 25 27 27 27 26 25 25 24 24 23 22 21 20 20 19 18 18 17 17 17 17 17 16 16 16 16 16 16 15 15
26 26 29 29 28 28 28 27 25 24 25 26 26 25 26 27 27 27 26 25 24 24 23 23 22 21 20 19 19 18 17 17 17 17 17 16 16 16 16 16 16 16 15 15
26 26 29 30 29 29 28 28 28 26 25 25 26 26 26 27 26 26 25 25 24 23 23 22 21 21 20 19 18 18 17 17 17 17 16 16 16 16 16 16 16 15 15 15
26 25 28 29 29 29 29 28 26 25 24 24 25 25 24 25 25 25 25 24 23 23 22 22 21 20 19 19 18 17 17 17 16 16 16 16 16 16 16 15 15 15 15 15
26 25 26 27 27 27 27 27 26 26 26 24 24 24 25 24 25 24 25 24 23 23 22 21 20 20 19 18 17 17 16 16 16 16 16 16 16 15 15 15 15 15 15 15
25 24 24 25 27 27 27 26 26 24 24 24 23 23 25 24 24 24 24 24 23 22 22 21 20 19 18 18 17 17 16 16 16 15 15 15 15 15 15 15 15 15 15 14
25 23 23 23 24 25 25 25 26 25 24 23 23 23 24 24 23 23 22 22 22 21 21 20 19 18 18 17 17 16 16 16 16 15 15 15 15 15 15 15 15 14 14 14
24 23 22 22 23 24 24 24 25 24 23 23 23 23 23 22 21 21 22 21 21 21 20 19 18 17 17 17 16 16 15 15 15 15 15 15 14 14 14 14 14 14 14 14
24 23 23 23 24 24 24 24 24 24 24 23 23 23 22 22 22 21 21 21 20 20 19 18 18 17 16 16 16 16 15 15 15 15 15 14 14 14 14 14 14 14 14 14
23 22 22 22 23 23 23 23 23 24 24 23 23 22 23 22 21 21 20 20 20 19 19 18 17 17 16 16 15 15 15 15 15 15 15 14 14 14 14 14 14 14 14 14
22 21 21 21 22 22 21 23 23 23 23 23 22 22 22 22 21 20 20 20 19 19 18 18 17 16 16 15 15 15 15 15 15 14 14 14 14 14 14 14 14 14 14 14
21 20 20 21 21 20 21 23 23 22 22 22 22 22 22 21 20 20 20 19 18 18 17 17 17 16 16 15 15 15 15 14 14 14 14 14 14 14 14 14 13 13 13 13
21 20 20 20 20 20 21 22 22 21 20 21 21 21 21 20 20 20 19 18 17 17 17 16 16 16 15 15 15 14 14 14 14 14 14 14 13 13 13 13 13 13 13 13
22 21 20 19 19 19 20 21 21 21 19 20 20 19 20 20 20 19 18 18 17 16 16 16 15 15 15 15 14 14 14 14 14 14 14 14 13 13 13 13 13 13 13 13
20 20 19 19 18 18 19 20 21 19 17 18 18 18 18 18 18 17 17 17 16 16 16 15 15 15 14 14 14 14 14 13 13 13 13 13 13 13 13 13 13 13 13 13
19 19 18 18 17 17 18 18 17 16 16 17 16 16 16 16 16 16 16 16 15 15 15 15 14 14 14 14 14 13 13 13 13 13 13 13 13 13 13 13 13 13 13 13
19 18 18 17 16 16 16 16 16 16 16 16 16 16 16 16 16 16 16 15 15 14 14 14 14 14 14 13 13 13 13 13 13 13 13 12 12 12 12 12 12 12 12 12
18 18 17 17 16 16 16 16 16 16 16 16 16 15 15 15 15 15 15 15 14 14 14 13 13 13 13 13 13 13 12 12 12 12 12 12 12 12 12 12 12 12 12 12
16 17 17 16 16 16 15 15 15 15 15 15 15 15 15 15 15 15 15 14 14 13 13 13 13 13 13 12 12 12 12 12 12 12 12 12 12 12 12 12 12 12 12 12
16 15 15 15 15 15 14 14 15 14 14 15 15 15 15 15 15 14 14 14 13 13 13 13 13 12 12 12 12 12 12 12 12 12 12 12 12 12 12 12 12 12 12 12
Wind_Speed
16 16 17 17 17 17 16 15 15 15 11 11 13 13 10 9 9 9 9 9 8 8 9 9 9 8 10 11 11 9 9 8 6 5 5 4 4 4 3 3 5 5 5 5
16 20 20 18 17 17 18 18 17 14 11 11 13 13 10 10 10 9 9 9 9 9 7 8 9 9 10 10 11 10 9 8 7 5 4 4 4 3 4 3 5 5 4 4
21 17 16 17 18 18 18 17 15 13 12 12 12 13 9 8 9 8 7 7 7 8 9 8 8 8 10 11 11 10 9 8 7 7 5 4 3 3 3 4 4 4 4 4
18 18 16 17 18 17 17 15 15 14 13 11 12 11 7 8 8 8 8 7 7 7 8 7 7 8 9 11 11 10 9 8 7 7 6 6 5 4 4 4 4 4 5 4
17 16 17 17 16 15 15 14 15 15 14 14 13 11 8 8 8 9 9 9 8 7 8 8 7 6 7 9 11 11 10 8 7 6 6 5 4 4 4 4 5 4 4 5
19 17 16 16 15 14 14 15 15 14 14 15 13 11 9 7 8 8 8 8 7 8 9 9 8 7 7 8 10 10 10 9 7 6 6 5 4 4 4 4 5 4 4 4
18 19 17 14 14 13 12 11 9 9 10 11 9 9 7 6 6 7 7 8 8 8 8 9 9 8 8 7 8 10 10 9 8 7 6 5 4 4 4 4 4 4 3 3
15 15 16 14 13 12 13 13 10 9 10 10 8 8 5 5 5 6 8 7 8 6 7 8 8 8 8 8 8 8 9 8 8 7 6 5 5 4 3 4 3 3 3 3
11 12 12 12 11 13 14 14 11 11 14 13 8 5 4 4 5 5 7 8 8 7 6 7 8 7 7 8 8 7 8 6 6 6 5 5 5 3 3 3 3 2 2 3
12 13 12 9 9 11 13 10 7 9 9 11 10 7 3 5 6 6 7 8 8 8 7 7 7 6 6 7 8 7 6 6 6 5 5 5 4 3 3 3 3 3 3 2
11 11 12 10 10 10 10 11 9 9 9 9 9 4 1 1 2 4 5 7 7 7 7 7 6 6 6 6 7 7 6 4 4 4 3 4 4 4 4 3 4 3 3 2
7 8 10 12 11 10 10 10 10 8 9 9 9 5 2 3 2 2 3 6 6 6 7 8 7 6 6 6 6 5 5 5 4 3 3 3 3 4 4 4 3 3 3 3
5 5 8 10 9 9 8 9 10 9 8 9 10 5 2 4 3 2 2 4 6 5 6 7 6 6 5 5 5 5 4 4 4 4 4 2 2 3 3 4 3 3 3 3
4 6 9 12 9 7 7 10 10 10 9 10 10 6 1 2 1 1 2 4 5 6 6 6 5 4 4 4 4 4 4 4 4 4 4 3 2 2 2 3 4 3 3 3
5 8 10 13 13 12 11 11 11 11 11 11 10 7 2 3 2 2 3 3 4 5 6 5 5 4 4 4 3 3 3 3 3 3 3 3 2 2 1 2 3 3 3 4
4 7 9 12 12 12 13 12 11 12 12 10 9 5 1 4 5 3 3 4 4 5 6 5 5 4 4 3 3 3 2 3 3 3 3 3 3 2 2 2 2 2 3 2
6 6 10 11 11 11 13 11 9 6 6 5 5 4 1 3 4 3 3 3 3 3 4 5 4 3 3 3 3 3 2 2 2 3 3 3 3 3 3 3 2 2 2 2
8 8 7 10 11 12 7 6 6 5 4 3 1 1 1 2 2 3 4 4 4 2 2 2 3 3 3 3 3 3 3 2 3 3 3 3 2 2 2 2 2 2 2 2
9 8 7 8 10 10 6 6 6 4 2 5 4 3 1 1 2 4 5 4 4 2 2 1 2 2 3 3 3 3 3 3 2 2 2 2 2 2 2 2 2 2 2 3
9 7 7 8 9 9 6 7 5 2 2 6 5 5 4 0 0 2 4 4 4 3 3 2 2 3 3 2 3 3 2 2 1 1 1 1 1 1 1 2 2 2 2 3
8 8 9 10 9 6 5 8 5 3 2 7 8 6 4 3 2 1 3 5 5 4 3 2 3 3 2 2 3 2 2 1 1 0 1 0 0 1 1 1 1 2 2 2
6 5 6 7 8 5 5 4 3 3 4 6 6 6 5 5 4 4 5 5 5 4 4 4 3 3 3 3 3 2 1 1 1 1 1 1 1 1 0 0 1 2 2 2
3 2 2 1 1 3 5 5 4 4 4 4 5 4 4 4 3 4 5 4 4 4 4 3 3 3 3 3 2 2 2 1 1 1 2 1 1 0 0 0 1 2 2 2
3 3 1 1 0 1 4 5 5 5 4 3 4 3 2 2 2 4 4 4 4 4 4 3 3 3 2 3 3 2 1 1 1 1 1 1 1 0 0 1 1 1 2 2
6 4 3 3 2 2 2 4 4 5 5 5 4 3 1 1 3 3 4 3 3 3 3 3 3 3 3 3 2 2 1 1 1 1 1 1 2 1 0 0 1 1 1 1
5 3 2 2 2 2 3 4 5 5 6 6 5 4 2 2 3 3 3 3 2 2 2 2 2 3 3 3 2 2 1 1 1 1 1 1 1 1 2 1 1 3 1 1
Wind_Direction
226 230 236 241 241 252 266 273 277 277 269 267 263 260 235 218 221 206 198 191 191 190 185 166 161 158 149 147 150 153 158 155 159 161 173 178 175 168 162 152 139 152 164 162
232 233 240 248 251 252 257 265 270 275 269 269 268 264 243 216 217 207 200 192 190 191 170 161 163 161 155 157 158 157 158 162 167 164 170 173 171 171 157 140 135 157 160 154
234 241 239 247 253 255 256 262 268 273 274 265 265 261 239 219 217 205 200 197 189 181 170 163 163 167 163 160 160 163 162 165 171 168 169 172 169 177 159 152 153 159 155 157
246 251 252 248 250 254 260 265 271 273 275 271 262 264 231 210 212 206 202 199 191 172 156 154 175 172 166 162 161 158 158 162 168 169 175 179 179 180 164 156 151 160 162 164
251 252 254 255 254 256 262 269 270 267 266 267 260 261 246 207 206 206 200 194 182 162 156 163 172 174 167 163 160 158 156 160 165 172 178 188 185 173 160 157 152 166 167 175
261 260 254 254 256 256 259 267 268 264 263 259 256 254 251 223 206 196 183 178 168 164 165 164 164 155 154 157 153 151 155 160 166 175 176 189 185 163 161 171 165 177 175 178
252 251 249 247 252 253 253 257 264 262 250 251 241 239 239 209 187 177 163 164 164 166 166 165 161 149 154 152 151 150 155 161 165 172 176 181 186 179 179 186 176 183 182 176
245 249 241 234 238 248 246 243 244 258 264 269 248 237 222 187 157 150 147 154 156 165 166 154 145 144 153 145 141 145 150 156 163 171 175 175 182 194 184 190 196 186 184 182
256 260 251 236 234 240 248 245 249 261 272 276 261 235 205 136 142 148 147 148 151 162 156 142 137 137 137 141 139 145 148 150 161 169 169 175 179 190 188 185 199 195 207 200
268 280 269 256 243 237 246 250 250 248 263 270 268 244 213 193 186 172 166 154 155 155 146 137 134 131 135 136 131 131 143 156 164 172 180 172 165 173 193 190 188 202 208 221
259 266 270 263 249 252 243 242 249 255 258 265 272 273 194 231 164 172 171 154 159 153 145 136 132 128 130 132 134 135 139 153 164 171 166 163 173 179 187 189 188 192 205 213
254 263 265 257 259 260 253 253 245 251 261 270 274 272 135 112 124 145 153 149 145 142 142 137 133 133 135 134 138 145 152 165 165 159 154 174 178 182 188 190 184 184 193 209
263 257 259 254 253 249 253 259 260 251 255 258 259 257 110 70 55 87 115 128 125 130 133 131 129 134 135 130 138 150 159 161 164 160 163 173 182 182 185 181 181 187 193 209
275 254 255 259 267 270 265 265 267 256 251 253 257 260 233 81 75 19 102 108 128 129 123 121 121 122 125 127 136 153 161 164 165 164 166 168 177 178 180 189 186 189 191 211
277 256 258 266 273 271 270 269 269 258 258 255 250 245 222 164 166 147 114 116 128 128 125 127 132 130 131 134 143 150 159 165 163 164 172 172 161 166 189 190 194 192 201 217
264 267 269 268 266 266 271 264 261 258 256 255 258 260 197 127 126 131 129 127 143 139 138 143 139 141 147 156 169 164 160 164 163 168 179 169 164 172 200 215 201 199 213 223
265 266 268 266 267 269 266 272 263 258 264 253 261 281 87 103 112 141 139 119 109 108 139 149 150 150 157 166 169 175 170 172 173 186 184 172 174 186 205 224 217 213 218 224
264 273 269 267 266 254 257 281 273 248 274 309 271 293 32 77 101 94 88 90 85 75 79 114 144 152 160 168 159 158 164 180 196 191 182 173 183 194 212 224 238 228 218 226
234 247 260 264 261 257 267 294 287 268 293 342 344 338 20 104 116 102 87 84 92 82 59 74 129 152 153 155 153 158 169 189 197 180 161 178 201 197 210 235 237 235 226 229
220 224 244 258 261 260 284 307 309 260 266 2 6 6 355 12 239 81 73 78 84 78 70 67 122 129 131 133 140 154 162 169 199 206 171 187 200 204 226 239 246 257 246 240
224 222 233 247 253 260 314 326 312 254 340 9 17 24 358 7 42 39 74 78 81 76 71 77 104 116 120 122 131 144 143 150 222 225 122 136 261 228 218 243 247 248 255 250
256 248 241 246 249 258 358 3 25 31 16 16 13 17 26 45 74 91 88 84 83 76 68 73 92 105 106 121 135 144 145 147 155 128 98 78 40 294 261 251 246 242 236 247
279 293 283 291 242 53 41 60 68 48 17 7 8 22 41 51 58 88 96 90 83 77 70 74 80 96 101 108 114 129 119 111 101 86 90 89 76 19 335 289 289 268 241 241
310 356 329 303 102 80 54 50 40 35 7 356 6 20 47 60 78 80 88 86 81 84 82 76 82 82 91 99 99 97 103 103 97 103 110 139 148 149 306 278 276 312 317 300
321 314 279 266 304 13 52 31 15 359 352 356 3 11 48 112 92 80 78 74 78 82 84 83 85 86 86 88 89 104 109 114 118 127 158 190 180 154 79 21 349 347 8 332
328 329 315 314 357 343 338 340 352 348 338 337 343 358 8 104 85 74 81 75 68 77 78 86 84 89 91 103 98 92 98 118 142 194 221 227 200 184 175 163 24 32 66 102
Height
1465 1467 1464 1458 1454 1453 1453 1454 1454 1447 1439 1443 1445 1444 1443 1445 1449 1452 1456 1460 1465 1469 1472 1475 1477 1479 1481 1483 1485 1488 1490 1492 1495 1497 1499 1501 1503 1504 1505 1507 1507 1509 1510 1512
1462 1461 1454 1450 1448 1448 1450 1453 1452 1445 1439 1442 1445 1443 1439 1442 1445 1449 1454 1458 1462 1467 1470 1472 1475 1477 1480 1482 1484 1486 1488 1491 1493 1495 1498 1500 1502 1503 1505 1506 1506 1507 1509 1511
1456 1449 1445 1447 1447 1448 1448 1450 1449 1449 1441 1439 1444 1447 1441 1440 1444 1447 1452 1456 1459 1463 1466 1469 1473 1476 1478 1480 1482 1484 1486 1489 1491 1494 1497 1499 1501 1503 1504 1504 1505 1506 1508 1509
1447 1443 1441 1443 1444 1444 1449 1441 1442 1444 1449 1450 1446 1457 1445 1441 1442 1444 1449 1453 1457 1460 1464 1468 1472 1475 1476 1478 1480 1483 1485 1487 1490 1492 1495 1497 1499 1500 1502 1503 1504 1505 1506 1507
1444 1440 1440 1442 1440 1439 1441 1437 1439 1441 1446 1450 1446 1453 1449 1440 1444 1444 1447 1450 1454 1458 1463 1467 1470 1473 1475 1477 1479 1481 1484 1486 1488 1491 1493 1496 1497 1499 1501 1502 1503 1504 1505 1506
1440 1436 1435 1435 1433 1434 1435 1438 1438 1440 1445 1460 1450 1454 1455 1441 1441 1441 1444 1448 1452 1457 1461 1465 1468 1471 1473 1475 1478 1480 1482 1484 1487 1489 1492 1494 1496 1497 1499 1500 1501 1502 1503 1504
1443 1435 1431 1431 1435 1434 1436 1447 1460 1464 1462 1459 1444 1450 1449 1435 1433 1437 1441 1446 1451 1455 1460 1463 1466 1468 1472 1474 1477 1479 1481 1483 1485 1488 1490 1492 1494 1496 1497 1498 1499 1500 1501 1503
1447 1442 1428 1426 1432 1437 1436 1442 1461 1471 1466 1453 1442 1448 1440 1431 1432 1436 1441 1446 1450 1454 1458 1461 1464 1468 1471 1473 1476 1478 1480 1482 1484 1486 1489 1490 1492 1494 1495 1496 1497 1498 1500 1501
1442 1440 1422 1421 1424 1429 1435 1436 1436 1449 1452 1456 1447 1440 1435 1431 1435 1437 1441 1446 1449 1454 1457 1460 1464 1467 1470 1472 1474 1477 1479 1480 1483 1485 1487 1489 1490 1492 1493 1494 1496 1497 1498 1499
1435 1441 1426 1421 1422 1424 1427 1430 1439 1450 1462 1464 1451 1446 1446 1439 1436 1438 1441 1444 1449 1453 1457 1460 1463 1466 1469 1471 1473 1476 1479 1480 1482 1483 1485 1487 1488 1490 1491 1492 1493 1494 1496 1497
1433 1442 1436 1429 1431 1432 1431 1435 1437 1440 1444 1459 1462 1456 1438 1438 1436 1438 1440 1444 1448 1452 1456 1459 1463 1465 1468 1470 1472 1475 1477 1479 1480 1482 1483 1485 1486 1488 1489 1490 1491 1492 1493 1494
1435 1440 1443 1436 1427 1425 1429 1432 1436 1450 1453 1450 1456 1456 1435 1437 1438 1439 1441 1444 1448 1451 1455 1459 1462 1465 1467 1469 1472 1474 1476 1477 1479 1480 1481 1483 1484 1486 1487 1488 1489 1490 1491 1492
1436 1442 1451 1447 1440 1433 1433 1432 1433 1438 1446 1451 1457 1454 1437 1439 1440 1441 1444 1446 1448 1452 1455 1458 1462 1465 1467 1469 1471 1473 1475 1476 1477 1479 1480 1481 1482 1484 1485 1486 1487 1488 1489 1490
1437 1441 1449 1453 1445 1438 1440 1437 1434 1438 1446 1450 1450 1448 1442 1442 1445 1445 1446 1447 1450 1452 1456 1458 1462 1464 1467 1469 1471 1473 1474 1475 1476 1478 1479 1480 1480 1481 1483 1484 1485 1486 1487 1488
1438 1442 1440 1438 1436 1436 1437 1437 1435 1437 1439 1443 1443 1442 1441 1442 1443 1445 1447 1449 1450 1453 1456 1459 1462 1465 1467 1469 1470 1472 1473 1474 1475 1476 1477 1478 1479 1480 1481 1483 1484 1484 1485 1486
1439 1443 1441 1441 1436 1436 1437 1434 1433 1433 1432 1435 1437 1440 1437 1439 1442 1446 1447 1449 1451 1454 1457 1460 1463 1465 1467 1468 1470 1471 1472 1473 1474 1475 1477 1477 1478 1479 1480 1481 1482 1483 1483 1484
1439 1444 1447 1445 1438 1439 1443 1434 1432 1434 1432 1433 1440 1439 1436 1439 1443 1446 1448 1450 1452 1455 1458 1460 1462 1464 1466 1468 1469 1470 1471 1472 1473 1474 1476 1476 1477 1478 1479 1480 1480 1481 1481 1482
1443 1444 1445 1445 1445 1453 1440 1430 1429 1432 1434 1432 1435 1436 1437 1440 1443 1446 1448 1450 1452 1455 1458 1460 1461 1463 1465 1467 1468 1469 1470 1471 1472 1473 1474 1475 1476 1476 1477 1478 1478 1479 1479 1480
1437 1442 1445 1445 1448 1443 1436 1432 1430 1434 1438 1436 1436 1436 1437 1440 1443 1446 1449 1451 1453 1455 1457 1459 1460 1462 1463 1465 1466 1468 1469 1470 1471 1471 1472 1474 1474 1475 1475 1476 1476 1477 1477 1478
1432 1437 1444 1445 1450 1451 1443 1434 1431 1434 1443 1441 1440 1440 1440 1441 1444 1448 1449 1451 1453 1455 1456 1457 1459 1460 1462 1464 1465 1466 1467 1468 1469 1470 1471 1472 1473 1473 1473 1474 1474 1475 1475 1476
1435 1438 1443 1445 1449 1446 1442 1437 1433 1445 1451 1446 1444 1444 1444 1444 1447 1450 1450 1452 1454 1455 1456 1457 1458 1459 1461 1462 1464 1465 1466 1467 1468 1469 1470 1470 1471 1471 1471 1472 1473 1473 1473 1474
1437 1440 1442 1444 1450 1452 1444 1440 1446 1451 1449 1448 1447 1447 1447 1447 1447 1449 1451 1452 1454 1455 1456 1457 1458 1459 1460 1461 1463 1464 1465 1466 1467 1468 1468 1468 1469 1470 1470 1470 1471 1471 1471 1471
1437 1440 1441 1446 1451 1448 1447 1447 1449 1449 1450 1449 1449 1449 1448 1449 1450 1450 1451 1453 1455 1456 1457 1457 1458 1459 1460 1461 1462 1463 1464 1465 1466 1467 1467 1467 1467 1468 1468 1468 1469 1469 1469 1469
1440 1440 1442 1445 1446 1447 1449 1449 1450 1450 1451 1450 1449 1449 1449 1450 1451 1451 1452 1453 1455 1456 1457 1457 1458 1459 1460 1461 1461 1462 1463 1464 1465 1465 1466 1466 1466 1466 1467 1467 1467 1467 1467 1467
1445 1444 1444 1447 1447 1448 1449 1450 1451 1451 1451 1450 1449 1449 1450 1450 1451 1452 1453 1455 1456 1456 1457 1458 1458 1459 1459 1460 1461 1462 1462 1463 1463 1464 1465 1465 1465 1465 1465 1465 1465 1465 1466 1466
1447 1448 1448 1449 1450 1451 1451 1451 1451 1451 1451 1450 1450 1449 1450 1450 1452 1453 1454 1455 1456 1456 1457 1458 1459 1459 1460 1460 1461 1461 1461 1462 1463 1463 1464 1464 1464 1464 1464 1464 1464 1463 1464 1464